www.pogodaiklimat.ru

Погода и климат >> Архив погоды >> Канада >> Cambridge Bay Gsn


ПОГОДА в Cambridge Bay Gsn

  • Прогноз погоды в Cambridge Bay Gsn
  • Монитор погоды в Cambridge Bay Gsn
  • Климат города

АРХИВ ПОГОДЫ в Cambridge Bay Gsn

Время (UTC), дата Ветер
(напр.,м/с)
 
Видим.   Явления Облачность Т
(С)
Тd
(С)
f
(%)
Тe
(С)
Тes
(С)
Комфортность P
(гПа)
Po
(гПа)
Тmin
(С)
Tmax
(С)
R
(мм)
R24
(мм)
S
(см)
18 20.06 С 4 н/о н/о +3.2 -1.1 73 -1 -1 1015.4 1013.0 -0.4 +3.4
21 20.06 С 5 н/о н/о +3.9 -1.8 66 -1 -1 1015.1 1012.7
00 21.06 СВ 6 н/о н/о +4.4 -0.8 69 -1 -1 1014.6 1012.2 -0.4 +4.7
03 21.06 СВ 6 н/о н/о +3.4 +0.1 79 -2 -2 1014.7 1012.3
06 21.06 С 5 н/о н/о +2.3 -0.9 79 -3 -3 1014.8 1012.4 -0.4 +4.7 21
09 21.06 С 6 н/о н/о +0.9 -0.8 88 -5 -5 1014.5 1012.1
12 21.06 С 5 н/о н/о +0.9 -1.2 86 -5 -5 1014.4 1012.0 +0.3 +4.7
15 21.06 СВ 7 н/о н/о +1.8 -0.8 83 -5 -5 1014.9 1012.5
18 21.06 СВ 6 н/о н/о +5.0 +0.2 71 0 0 1014.8 1012.4 -0.4 +5.2
21 21.06 СВ 5 н/о н/о +7.5 +1.8 67 +4 +4 1014.9 1012.5
00 22.06 С 6 н/о н/о +7.7 +1.9 67 +4 +4 1015.2 1012.8 -0.4 +8.2
03 22.06 н/о н/о +4.9 +1.2 77 1015.9 1013.5
06 22.06 С 3 н/о н/о +3.6 +0.4 80 -0 -0 1016.2 1013.8 -0.4 +8.2
09 22.06 СЗ 3 н/о н/о +1.9 +0.6 91 -3 -3 1015.8 1013.4
12 22.06 С 4 н/о н/о +3.1 +1.0 86 -2 -2 1016.3 1013.9 +1.8 +8.2
15 22.06 С 5 н/о н/о +6.4 +1.1 69 +2 +2 1016.1 1013.7
18 22.06 С 6 н/о н/о +8.6 +1.9 63 +5 +5 1016.4 1014.0 +1.8 +8.7
21 22.06 С 6 н/о н/о +10.3 +2.1 57 +7 +7 1017.0 1014.6
00 23.06 С 6 н/о н/о +11.2 +2.0 53 +8 +8 1017.7 1015.3 +1.8 +11.5
03 23.06 С 4 н/о н/о +10.5 +2.5 58 +8 +8 1018.5 1016.1
06 23.06 С 1 н/о н/о +7.8 +2.6 70 +7 +7 1018.6 1016.2 +1.8 +11.5 23
09 23.06 СЗ 2 н/о н/о +4.5 +1.5 81 +2 +2 1018.6 1016.2
12 23.06 З 3 н/о н/о +4.3 +0.5 76 +1 +1 1018.3 1015.9 +4.1 +11.5
15 23.06 З 5 н/о н/о +7.3 +2.9 74 +4 +4 1017.6 1015.2
18 23.06 З 7 н/о н/о +9.2 +4.7 73 +5 +5 1017.1 1014.7 +4.1 +10.5
21 23.06 З 7 н/о н/о +9.9 +4.0 67 +6 +6 1016.4 1014.0
00 24.06 З 6 н/о н/о +7.6 +3.6 76 +4 +4 1015.8 1013.4 +4.1 +10.8
03 24.06 С 8 н/о н/о +9.1 +6.3 83 +5 +5 1016.4 1014.0
06 24.06 С 5 н/о н/о +4.8 +2.6 86 0 0 1018.1 1015.7 +4.1 +10.8 4
09 24.06 С 3 н/о н/о +4.2 +1.8 84 +1 +1 1019.0 1016.6
12 24.06 З 4 н/о н/о +3.7 +2.4 91 -1 -1 1019.6 1017.2 +3.2 +10.8
15 24.06 СЗ 5 н/о н/о +6.6 +2.1 73 +3 +3 1019.7 1017.3
18 24.06 С 5 н/о н/о +6.9 +2.5 74 +3 +3 1019.6 1017.2 +3.2 +7.5
21 24.06 СЗ 2 н/о н/о +8.2 +2.8 69 +6 +6 1019.6 1017.2
00 25.06 ЮЗ 5 н/о н/о +8.3 +3.9 74 +5 +5 1018.8 1016.4 +3.2 +9.6
03 25.06 Ю 5 н/о н/о +7.2 +3.9 80 +3 +3 1016.2 1013.8
06 25.06 Ю 8 н/о н/о +5.2 +3.7 90 -1 -1 1013.6 1011.2 +3.2 +9.6 6
09 25.06 Ю 9 н/о н/о +5.9 +4.3 89 -0 -0 1010.1 1007.7
12 25.06 З 4 н/о н/о +4.2 +2.9 91 -0 -0 1009.5 1007.1 +3.3 +9.6
15 25.06 С 9 н/о н/о +7.3 +5.2 87 +2 +2 1010.7 1008.3
18 25.06 С 10 н/о н/о +8.2 +4.6 78 +3 +3 1012.9 1010.5 +3.3 +8.9
21 25.06 С 7 н/о н/о +7.6 +4.0 78 +3 +3 1014.6 1012.2
00 26.06 СВ 6 н/о н/о +8.1 +5.2 82 +4 +4 1015.9 1013.5 +3.3 +8.9
03 26.06 В 4 н/о н/о +6.3 +3.7 83 +2 +2 1017.7 1015.3
06 26.06 В 3 н/о н/о +5.2 +3.3 88 +2 +2 1018.8 1016.4 +3.3 +8.9 15
09 26.06 В 2 н/о н/о +4.1 +3.0 93 +1 +1 1019.9 1017.5
12 26.06 ЮВ 3 н/о н/о +5.3 +3.5 88 +2 +2 1020.3 1017.9 +3.7 +8.9
15 26.06 ЮВ 3 н/о н/о +9.3 +4.7 73 +7 +7 1020.3 1017.9
18 26.06 Ю 4 н/о н/о +11.1 +3.9 61 +9 +9 1020.1 1017.7 +3.7 +11.2
21 26.06 ЮВ 6 н/о н/о +11.7 +3.4 57 +9 +9 1019.4 1017.0
00 27.06 ЮВ 7 н/о н/о +10.7 +4.2 64 +8 +8 1019.3 1016.9 +3.7 +12.2
03 27.06 ЮВ 6 н/о н/о +8.0 +4.0 76 +4 +4 1018.7 1016.3
06 27.06 ЮВ 5 н/о н/о +4.7 +2.4 85 0 0 1018.7 1016.3 +3.7 +12.2
09 27.06 ЮВ 5 н/о н/о +3.9 +2.5 91 -1 -1 1018.6 1016.2
12 27.06 Ю 6 н/о н/о +6.2 +3.5 83 +2 +2 1018.6 1016.2 +3.6 +12.2
15 27.06 Ю 6 н/о н/о +9.7 +3.9 67 +6 +6 1018.1 1015.7

 

Местоположение метеостанции Cambridge Bay Gsn (Канада): широта 69.10 долгота -105.10 высота над уровнем моря 19 м.

В архиве по умолчанию представлена погода в Cambridge Bay Gsn за последнюю неделю. Архивные данные за месяц целиком и за предыдущие месяцы, начиная с января 2011 года, Вы можете получить, выбрав интересующий диапазон дат из раскрывающегося списка и нажав кнопку "Ввод!".

Внимание! Время в таблицах - всемирное. Для получения местного времени необходимо прибавить поправку, которая в Cambridge Bay Gsn равна -7 ч.

Смотрите также архив погоды в соседних городах и на ближайших метеорологических станциях:

Погода в Cape Peel West (Канада) (108 км)
Погода в Ellice River AWS (Канада) (158 км)
Погода в Hat Island (Канада) (223 км)
Погода в Gjoa Haven Climate (Канада) (374 км)
Погода в Kugluktuk (Канада) (432 км)
Погода в Kugluktuk Airport (Канада) (432 км)
Погода в Lupin (Канада) (452 км)
Погода в Lupin (maps) (Канада) (452 км)
Погода в Spence bay (Канада) (454 км)
Погода в Robertson Lake (Канада) (460 км)

Пояснения к столбцам:

Ветер - указаны скорость ветра в м/с - средняя за 10 мин, порывы в срок и между сроками (в фигурных скобках) и направление, откуда дует ветер: С - северный, СВ - северо-восточный, В - восточный, ЮВ - юго-восточный, Ю - южный, ЮЗ - юго-западный, З - западный, СЗ - северо-западный.
Видимость - горизонтальная дальность видимости в метрах или километрах. При видимости от 1 до 10 км при отсутствии осадков обычно наблюдается дымка, при ухудшении видимости до 1 км и менее - туман. В сухую погоду видимость может ухудшаться дымом, пылью или мглою.
Явления - указаны атмосферные явления, наблюдавшиеся в срок или в последний час перед сроком; фигурными скобками обозначены явления, наблюдавшиеся между сроками (за 1-3 часа до срока); квадратными скобками обозначены град или гололедные отложения с указанием их диаметра в мм.
Облачность - указаны через наклонную черту общая и нижняя облачность в баллах и высота нижней границы облаков в метрах; квадратными скобками обозначены формы облаков: Ci - перистые, Cs - перисто-слоистые, Cc - перисто-кучевые, Ac - высококучевые, As - высокослоистые, Sc - слоисто-кучевые, Ns - слоисто-дождевые, Cu - кучевые, Cb - кучево-дождевые. Подробнее классификацию облаков см. в Атласе облаков (PDF).
T - Температура воздуха - температура, измеренная на высоте 2 м над землей.
Td - Температура точки росы - температура, при понижении до которой содержащийся в воздухе водяной пар достигнет насыщения.
f - Относительная влажность воздуха - влажноcть воздуха, измеренная на высоте 2 м над землей.
Te - Эффективная температура - температура, которую ощущает одетый по сезону человек в тени. Характеристика душности погоды. При расчете учитывается влияние влажности воздуха и скорости ветра на теплоощущения человека.
Tes - Эффективная температура на солнце - температура, которую ощущает человек, с поправкой на солнечный нагрев. Характеристика знойности погоды. Зависит от высоты солнца над горизонтом, облачности и скорости ветра. Ночью, в пасмурную погоду, а также при ветре 12 м/с и более поправка равна нулю.
P - Атмосферное давление - приведенное к уровню моря атмосферное давление.
Po - Атмосферное давление - измеренное на уровне метеостанции атмосферное давление.
Tmin - Минимальная температура - минимум температуры воздуха на высоте 2 м над землей.
Tmax - Максимальная температура - максимум температуры воздуха на высоте 2 м над землей.
R - Количество осадков - Количество выпавших осадков за период времени, мм. При наведении курсора мыши на число - период времени, за который выпало указанное количество осадков.
R24 - Количество осадков - Количество выпавших осадков за 24 часа, мм.
S - Снежный покров - Высота снежного покрова, см. При наведении курсора мыши на число - состояние снежного покрова и степень покрытия местности в баллах.